カタログに戻る

STARLINK-36813

運用中通信SSO
NORAD 67892·PAYLOAD·🇺🇸 United States

打ち上げ Feb 21, 2026 から Vandenberg Space Force Base

Loading…

次のパス (今後24時間)

TLE

最新Source: CelesTrak SupGP

元期: Sep 15, 2026, 03:32 UTC

1 67892C 26035P   26258.14770833  .00092332  00000+0  28664-2 0  2588
2 67892  97.2848 190.1432 0001708  99.8737  28.6241 15.33389484    13

AllMySatでSTARLINK-36813をリアルタイム追跡

Download on the App Store